Location: Unspecified
(45.0703°N, 0.0000°E)
Time: 09:53:19
(UTC+00:00)

Injun/Solrad 3 - Visible Passes

Search period start: 04 April 2026 00:00
Search period end: 14 April 2026 00:00
Orbit: 870 x 986 km, 66.8° (Epoch: 29 March)

Date Brightness Start Highest point End Pass type
(mag) Time Alt. Az. Time Alt. Az. Time Alt. Az.
4 Apr 8.7 01:42:00 46° N 01:42:00 46° N 01:46:27 10° NNE visible
4 Apr 9.7 03:25:37 14° WNW 03:28:10 17° NNW 03:32:10 10° N visible
5 Apr 10.0 00:08:56 18° NE 00:08:56 18° NE 00:10:39 10° NE visible
5 Apr 8.8 01:52:33 41° NNW 01:52:33 41° NNW 01:57:24 10° NNE visible
5 Apr 10.0 03:36:42 10° NW 03:39:46 14° NNW 03:42:53 10° N visible
6 Apr 9.6 00:19:27 25° NE 00:19:27 25° NE 00:21:57 10° NE visible
6 Apr 9.0 02:03:03 32° NW 02:03:03 32° NW 02:08:18 10° NNE visible
6 Apr 10.2 03:49:25 10° NW 03:51:27 12° NNW 03:53:30 10° N visible
7 Apr 9.3 00:29:56 32° NE 00:29:56 32° NE 00:33:07 10° NE visible
7 Apr 9.4 02:13:32 24° NW 02:14:12 24° NW 02:19:09 10° NNE visible
8 Apr 9.0 00:40:22 39° NNE 00:40:22 39° NNE 00:44:10 10° NNE visible
8 Apr 9.7 02:23:58 17° NW 02:25:41 19° NNW 02:29:57 10° NNE visible
8 Apr 10.1 23:07:11 14° NE 23:07:11 14° NE 23:08:13 10° NE visible
9 Apr 9.0 00:50:46 40° N 00:50:46 40° N 00:55:08 10° NNE visible
9 Apr 10.1 02:34:22 11° WNW 02:37:15 15° NNW 02:40:43 10° N visible
9 Apr 9.7 23:17:32 21° NE 23:17:32 21° NE 23:19:34 10° NE visible
10 Apr 9.1 01:01:08 35° NNW 01:01:08 35° NNW 01:06:03 10° NNE visible
10 Apr 10.2 02:46:28 10° NW 02:48:54 12° NNW 02:51:22 10° N visible
10 Apr 9.3 23:27:51 29° NE 23:27:51 29° NE 23:30:46 10° NE visible
11 Apr 9.4 01:11:27 27° NW 01:11:45 27° NW 01:16:55 10° NNE visible
11 Apr 10.5 02:59:30 10° NNW 03:00:38 10° NNW 03:01:47 10° N visible
11 Apr 10.6 04:49:00 10° N 04:50:24 11° NNE 04:51:49 10° NNE visible
11 Apr 9.0 23:38:07 39° NNE 23:38:07 39° NNE 23:41:51 10° NNE visible
12 Apr 9.8 01:21:43 19° NW 01:23:12 21° NW 01:27:44 10° NNE visible
12 Apr 9.9 22:04:44 14° ENE 22:04:44 14° ENE 22:05:43 10° NE visible
12 Apr 8.8 23:48:20 44° N 23:48:20 44° N 23:52:51 10° NNE visible
13 Apr 10.1 01:31:55 12° WNW 01:34:44 16° NNW 01:38:30 10° N visible
13 Apr 9.5 22:14:52 22° NE 22:14:52 22° NE 22:17:10 10° NE visible
